Search for airport 
image banner adimage banner ad
image banner ad

WARR - Surabaya/Juanda

Located in Surabaya, Indonesia

ICAO - WARR, IATA - SUB

Data provided by Airmate  

General information

Coordinates: S7°22'51" E112°47'11"
Elevation is 11 feet MSL.
 
Rated:
View ratings: [VIEW]


View others Airports in Jawa Timur

Operational data

Open for public use
Current time UTC:
Current local time:
Weather
TAF: TAF WARR 170500Z 1706/1806 27010KT 9999 SCT020 TEMPO 1706/1710 33010KT 3000 TSRA SCT018CB PROB40 TEMPO 1711/1714 5000 TSRA SCT020CB BECMG 1714/1716 27005KT 4000 HZ FEW020 BECMG 1800/1802 29010KT 9999 NSW
View NOTAMs / SUP AIP / TFR affecting this airport [VIEW]
Communications frequencies: [VIEW]

Runways:

RWY identifierQFULength (ft)Width (ft)SurfaceLDA (ft)
1099°9843148ASP
28279°9843148

Airport contact information

Address: Surabaya Indonesia

Satellite view of WARR